| time (UTC) | temp F | wind direction | speed knots | gust knots | rain 1hr in | rain 24hr in | rain mn in | humidity % | barometer mb |
| 20260509022032 | 57 | 0 | 0.0 | 0.0 | 0.00 | 0.00 | 0.00 | 87 | 1015.3 |
| 20260509021545 | 57 | 0 | 0.0 | 0.0 | 0.00 | 0.00 | 0.00 | 87 | 1015.4 |
| 20260509021031 | 57 | 0 | 0.0 | 0.0 | 0.00 | 0.00 | 0.00 | 87 | 1015.5 |
| 20260509020533 | 57 | 0 | 0.0 | 0.0 | 0.00 | 0.00 | 0.00 | 87 | 1015.5 |
| 20260509020047 | 58 | 0 | 0.0 | 0.0 | 0.00 | 0.00 | 0.00 | 86 | 1015.3 |
| 20260509015533 | 58 | 0 | 0.0 | 0.0 | 0.00 | 0.00 | 0.00 | 86 | 1015.4 |
| 20260509015033 | 58 | 0 | 0.0 | 0.0 | 0.00 | 0.00 | 0.00 | 85 | 1015.4 |
| 20260509014543 | 58 | 0 | 0.0 | 0.0 | 0.00 | 0.00 | 0.00 | 85 | 1015.4 |
| 20260509014035 | 58 | 0 | 0.0 | 0.0 | 0.00 | 0.00 | 0.00 | 84 | 1015.2 |
| 20260509013529 | 58 | 0 | 0.0 | 0.0 | 0.00 | 0.00 | 0.00 | 83 | 1015.1 |
| 20260509013041 | 59 | 0 | 0.0 | 0.0 | 0.00 | 0.00 | 0.00 | 83 | 1015.2 |
| 20260509012532 | 59 | 0 | 0.0 | 0.0 | 0.00 | 0.00 | 0.00 | 83 | 1015.0 |
| 20260509012031 | 59 | 0 | 0.0 | 0.0 | 0.00 | 0.00 | 0.00 | 83 | 1015.0 |
| 20260509011546 | 59 | 0 | 0.0 | 0.0 | 0.00 | 0.00 | 0.00 | 82 | 1015.0 |
| 20260509011030 | 59 | 0 | 0.0 | 0.0 | 0.00 | 0.00 | 0.00 | 81 | 1015.0 |
| 20260509010529 | 60 | 0 | 0.0 | 0.0 | 0.00 | 0.00 | 0.00 | 81 | 1015.0 |
| 20260509010046 | 60 | 0 | 0.0 | 0.0 | 0.00 | 0.00 | 0.00 | 80 | 1015.0 |
| 20260509005534 | 60 | 0 | 0.0 | 0.0 | 0.00 | 0.00 | 0.00 | 80 | 1014.9 |
| 20260509005032 | 61 | 0 | 0.0 | 0.0 | 0.00 | 0.00 | 0.00 | 80 | 1014.9 |
| 20260509004549 | 61 | 0 | 0.0 | 0.0 | 0.00 | 0.00 | 0.00 | 79 | 1015.0 |
| 20260509004032 | 61 | 0 | 0.0 | 0.0 | 0.00 | 0.00 | 0.00 | 77 | 1014.9 |
| 20260509003532 | 62 | 0 | 0.0 | 0.0 | 0.00 | 0.00 | 0.00 | 76 | 1014.8 |
| 20260509003044 | 62 | 0 | 0.0 | 0.0 | 0.00 | 0.00 | 0.00 | 76 | 1014.7 |
| 20260509002529 | 62 | 0 | 0.0 | 0.0 | 0.00 | 0.00 | 0.00 | 74 | 1014.7 |
| 20260509002031 | 62 | 0 | 0.0 | 0.0 | 0.00 | 0.00 | 0.00 | 74 | 1014.8 |
| 20260509001541 | 63 | 0 | 0.0 | 0.0 | 0.00 | 0.00 | 0.00 | 74 | 1014.5 |
| 20260509001030 | 63 | 0 | 0.0 | 0.0 | 0.00 | 0.00 | 0.00 | 73 | 1014.6 |
| 20260509000530 | 63 | 0 | 0.0 | 0.0 | 0.00 | 0.00 | 0.00 | 74 | 1014.4 |
| 20260509000047 | 63 | 0 | 0.0 | 0.9 | 0.00 | 0.00 | 0.00 | 74 | 1014.5 |
| 20260508235531 | 64 | 0 | 0.0 | 0.9 | 0.00 | 0.00 | 0.00 | 74 | 1014.3 |
| 20260508235033 | 64 | 0 | 0.0 | 0.0 | 0.00 | 0.00 | 0.00 | 74 | 1014.3 |
| 20260508234553 | 64 | 0 | 0.0 | 0.0 | 0.00 | 0.00 | 0.00 | 72 | 1014.4 |
| 20260508234030 | 65 | 0 | 0.0 | 0.0 | 0.00 | 0.00 | 0.00 | 69 | 1014.3 |
| 20260508233534 | 65 | 0 | 0.0 | 0.0 | 0.00 | 0.00 | 0.00 | 69 | 1014.5 |
| 20260508233049 | 65 | 0 | 0.0 | 0.0 | 0.00 | 0.00 | 0.00 | 68 | 1014.5 |
| 20260508232532 | 65 | 0 | 0.0 | 0.0 | 0.00 | 0.00 | 0.00 | 69 | 1014.4 |
| 20260508232029 | 65 | 0 | 0.0 | 0.0 | 0.00 | 0.00 | 0.00 | 67 | 1014.4 |
| 20260508231619 | 66 | 0 | 0.0 | 0.0 | 0.00 | 0.00 | 0.00 | 66 | 1014.5 |
| 20260508231032 | 66 | 0 | 0.0 | 0.9 | 0.00 | 0.00 | 0.00 | 66 | 1014.4 |
| 20260508230529 | 66 | 0 | 0.0 | 0.9 | 0.00 | 0.00 | 0.00 | 66 | 1014.5 |
| 20260508230054 | 66 | 0 | 0.0 | 0.9 | 0.00 | 0.00 | 0.00 | 65 | 1014.3 |
| 20260508225530 | 67 | 0 | 0.0 | 0.9 | 0.00 | 0.00 | 0.00 | 67 | 1014.3 |
| 20260508225034 | 67 | 0 | 0.0 | 0.0 | 0.00 | 0.00 | 0.00 | 67 | 1014.3 |
| 20260508224547 | 67 | 0 | 0.0 | 0.0 | 0.00 | 0.00 | 0.00 | 63 | 1014.3 |
| 20260508224029 | 67 | 0 | 0.0 | 0.9 | 0.00 | 0.00 | 0.00 | 64 | 1014.5 |
| 20260508223531 | 67 | 0 | 0.0 | 0.9 | 0.00 | 0.00 | 0.00 | 63 | 1014.5 |
| 20260508223044 | 68 | 0 | 0.0 | 0.9 | 0.00 | 0.00 | 0.00 | 61 | 1014.5 |
| 20260508222530 | 68 | 0 | 0.0 | 0.0 | 0.00 | 0.00 | 0.00 | 63 | 1014.4 |
| 20260508222029 | 68 | 0 | 0.0 | 0.0 | 0.00 | 0.00 | 0.00 | 63 | 1014.5 |
| 20260508221547 | 68 | 0 | 0.0 | 0.0 | 0.00 | 0.00 | 0.00 | 62 | 1014.4 |
| 20260508221032 | 68 | 0 | 0.0 | 0.0 | 0.00 | 0.00 | 0.00 | 62 | 1014.4 |
| 20260508220529 | 68 | 0 | 0.0 | 0.0 | 0.00 | 0.00 | 0.00 | 60 | 1014.3 |
| 20260508220044 | 68 | 0 | 0.0 | 0.0 | 0.00 | 0.00 | 0.00 | 60 | 1014.3 |
| 20260508215534 | 69 | 0 | 0.0 | 0.0 | 0.00 | 0.00 | 0.00 | 61 | 1014.3 |
| 20260508215031 | 69 | 0 | 0.0 | 2.6 | 0.00 | 0.00 | 0.00 | 60 | 1014.4 |
| 20260508214605 | 69 | 0 | 0.0 | 2.6 | 0.00 | 0.00 | 0.00 | 59 | 1014.4 |
| 20260508214028 | 69 | 0 | 0.0 | 0.0 | 0.00 | 0.00 | 0.00 | 61 | 1014.5 |
| 20260508213529 | 69 | 0 | 0.0 | 0.0 | 0.00 | 0.00 | 0.00 | 61 | 1014.4 |
| 20260508213048 | 69 | 0 | 0.0 | 0.0 | 0.00 | 0.00 | 0.00 | 57 | 1014.5 |
| 20260508212533 | 69 | 0 | 0.0 | 0.0 | 0.00 | 0.00 | 0.00 | 63 | 1014.4 |
| 20260508212031 | 69 | 0 | 0.0 | 0.0 | 0.00 | 0.00 | 0.00 | 60 | 1014.5 |
| 20260508211544 | 69 | 0 | 0.0 | 1.7 | 0.00 | 0.00 | 0.00 | 59 | 1014.4 |
| 20260508211032 | 69 | 0 | 0.0 | 1.7 | 0.00 | 0.00 | 0.00 | 59 | 1014.4 |
| 20260508210530 | 70 | 0 | 0.0 | 1.7 | 0.00 | 0.00 | 0.00 | 62 | 1014.3 |
| 20260508210049 | 70 | 0 | 0.0 | 2.6 | 0.00 | 0.00 | 0.00 | 60 | 1014.3 |
| 20260508205530 | 70 | 0 | 0.0 | 3.5 | 0.00 | 0.00 | 0.00 | 59 | 1014.3 |
| 20260508205031 | 70 | 0 | 0.0 | 3.5 | 0.00 | 0.00 | 0.00 | 56 | 1014.3 |
| 20260508204545 | 70 | 0 | 0.0 | 3.5 | 0.00 | 0.00 | 0.00 | 55 | 1014.3 |
| 20260508204029 | 70 | 0 | 0.0 | 1.7 | 0.00 | 0.00 | 0.00 | 58 | 1014.3 |
| 20260508203529 | 71 | 0 | 0.0 | 2.6 | 0.00 | 0.00 | 0.00 | 60 | 1014.5 |
| 20260508203104 | 71 | 0 | 0.0 | 2.6 | 0.00 | 0.00 | 0.00 | 56 | 1014.6 |
| 20260508202531 | 71 | 0 | 0.0 | 3.5 | 0.00 | 0.00 | 0.00 | 58 | 1014.5 |
| 20260508202030 | 71 | 0 | 0.0 | 3.5 | 0.00 | 0.00 | 0.00 | 55 | 1014.6 |
| 20260508201547 | 72 | 261 | 0.0 | 0.9 | 0.00 | 0.00 | 0.00 | 56 | 1014.6 |
| 20260508201030 | 72 | 0 | 0.0 | 2.6 | 0.00 | 0.00 | 0.00 | 55 | 1014.6 |
| 20260508200529 | 71 | 0 | 0.0 | 2.6 | 0.00 | 0.00 | 0.00 | 53 | 1014.7 |
| 20260508200043 | 71 | 0 | 0.0 | 2.6 | 0.00 | 0.00 | 0.00 | 57 | 1014.7 |
| 20260508195531 | 71 | 0 | 0.0 | 4.3 | 0.00 | 0.00 | 0.00 | 55 | 1014.8 |
| 20260508195031 | 71 | 0 | 0.0 | 4.3 | 0.00 | 0.00 | 0.00 | 53 | 1014.9 |
| 20260508194553 | 72 | 325 | 0.0 | 2.6 | 0.00 | 0.00 | 0.00 | 51 | 1015.0 |
| 20260508194033 | 72 | 0 | 0.0 | 1.7 | 0.00 | 0.00 | 0.00 | 54 | 1015.1 |
| 20260508193528 | 71 | 0 | 0.0 | 1.7 | 0.00 | 0.00 | 0.00 | 55 | 1015.2 |
| 20260508193105 | 71 | 0 | 0.0 | 1.7 | 0.00 | 0.00 | 0.00 | 51 | 1015.2 |
| 20260508192531 | 71 | 0 | 0.0 | 0.9 | 0.00 | 0.00 | 0.00 | 54 | 1015.3 |
| 20260508192032 | 71 | 0 | 0.0 | 0.9 | 0.00 | 0.00 | 0.00 | 54 | 1015.3 |
| 20260508191548 | 71 | 0 | 0.0 | 3.5 | 0.00 | 0.00 | 0.00 | 57 | 1015.4 |
| 20260508191029 | 70 | 0 | 0.0 | 3.5 | 0.00 | 0.00 | 0.00 | 59 | 1015.5 |
| 20260508190529 | 70 | 0 | 0.0 | 2.6 | 0.00 | 0.00 | 0.00 | 55 | 1015.5 |
| 20260508190044 | 70 | 0 | 0.0 | 2.6 | 0.00 | 0.00 | 0.00 | 56 | 1015.5 |
| 20260508185531 | 70 | 0 | 0.0 | 2.6 | 0.00 | 0.00 | 0.00 | 53 | 1015.8 |
| 20260508185029 | 70 | 0 | 0.0 | 0.9 | 0.00 | 0.00 | 0.00 | 55 | 1015.9 |
| 20260508184542 | 70 | 0 | 0.0 | 0.9 | 0.00 | 0.00 | 0.00 | 57 | 1016.1 |
| 20260508184029 | 70 | 0 | 0.0 | 3.5 | 0.00 | 0.00 | 0.00 | 53 | 1016.1 |
| 20260508183532 | 70 | 0 | 0.0 | 3.5 | 0.00 | 0.00 | 0.00 | 59 | 1016.1 |
| 20260508183041 | 69 | 0 | 0.0 | 3.5 | 0.00 | 0.00 | 0.00 | 56 | 1016.2 |
| 20260508182533 | 70 | 0 | 0.0 | 0.9 | 0.00 | 0.00 | 0.00 | 58 | 1016.2 |
| 20260508182028 | 70 | 0 | 0.0 | 0.9 | 0.00 | 0.00 | 0.00 | 60 | 1016.3 |
| 20260508181552 | 69 | 0 | 0.0 | 0.9 | 0.00 | 0.00 | 0.00 | 55 | 1016.5 |
| 20260508181032 | 69 | 0 | 0.0 | 0.9 | 0.00 | 0.00 | 0.00 | 56 | 1016.4 |
| 20260508180531 | 69 | 0 | 0.0 | 3.5 | 0.00 | 0.00 | 0.00 | 56 | 1016.6 |
| 20260508180055 | 70 | 0 | 0.0 | 3.5 | 0.00 | 0.00 | 0.00 | 55 | 1016.4 |
| 20260508175529 | 69 | 0 | 0.0 | 1.7 | 0.00 | 0.00 | 0.00 | 57 | 1016.6 |
| 20260508175032 | 69 | 0 | 0.0 | 6.1 | 0.00 | 0.00 | 0.00 | 60 | 1016.7 |
| 20260508174548 | 69 | 0 | 0.9 | 6.1 | 0.00 | 0.00 | 0.00 | 55 | 1016.8 |
| 20260508174035 | 69 | 0 | 0.0 | 0.0 | 0.00 | 0.00 | 0.00 | 57 | 1017.0 |
| 20260508173529 | 69 | 0 | 0.0 | 3.5 | 0.00 | 0.00 | 0.00 | 59 | 1017.1 |
| 20260508173048 | 68 | 0 | 0.0 | 3.5 | 0.00 | 0.00 | 0.00 | 60 | 1017.0 |
| 20260508172529 | 68 | 0 | 0.0 | 3.5 | 0.00 | 0.00 | 0.00 | 60 | 1017.1 |
| 20260508172032 | 67 | 0 | 0.0 | 6.1 | 0.00 | 0.00 | 0.00 | 63 | 1017.1 |
| 20260508171546 | 67 | 0 | 0.0 | 6.1 | 0.00 | 0.00 | 0.00 | 60 | 1017.3 |
| 20260508171032 | 67 | 0 | 0.9 | 4.3 | 0.00 | 0.00 | 0.00 | 59 | 1017.4 |
| 20260508170532 | 68 | 0 | 0.0 | 7.8 | 0.00 | 0.00 | 0.00 | 61 | 1017.4 |
| 20260508170043 | 67 | 0 | 0.0 | 7.8 | 0.00 | 0.00 | 0.00 | 60 | 1017.5 |
| 20260508165532 | 67 | 24 | 0.0 | 7.0 | 0.00 | 0.00 | 0.00 | 63 | 1017.6 |
| 20260508165031 | 66 | 0 | 0.9 | 7.0 | 0.00 | 0.00 | 0.00 | 61 | 1017.6 |
| 20260508164553 | 66 | 0 | 0.0 | 4.3 | 0.00 | 0.00 | 0.00 | 64 | 1017.8 |
| 20260508164031 | 66 | 352 | 0.0 | 2.6 | 0.00 | 0.00 | 0.00 | 62 | 1017.9 |
| 20260508163532 | 66 | 0 | 0.0 | 2.6 | 0.00 | 0.00 | 0.00 | 62 | 1018.0 |
| 20260508163048 | 66 | 250 | 0.0 | 3.5 | 0.00 | 0.00 | 0.00 | 61 | 1018.0 |
| 20260508162530 | 66 | 0 | 0.0 | 3.5 | 0.00 | 0.00 | 0.00 | 61 | 1018.0 |
| 20260508162032 | 66 | 0 | 0.0 | 2.6 | 0.00 | 0.00 | 0.00 | 59 | 1018.0 |
| 20260508161545 | 66 | 0 | 0.0 | 2.6 | 0.00 | 0.00 | 0.00 | 63 | 1018.0 |
| 20260508161031 | 66 | 0 | 0.0 | 2.6 | 0.00 | 0.00 | 0.00 | 60 | 1018.1 |
| 20260508160531 | 66 | 0 | 0.0 | 0.9 | 0.00 | 0.00 | 0.00 | 64 | 1018.1 |
| 20260508160044 | 66 | 0 | 0.0 | 0.9 | 0.00 | 0.00 | 0.00 | 60 | 1018.3 |
| 20260508155531 | 66 | 0 | 0.0 | 0.0 | 0.00 | 0.00 | 0.00 | 60 | 1018.4 |
| 20260508155031 | 66 | 0 | 0.0 | 0.0 | 0.00 | 0.00 | 0.00 | 65 | 1018.4 |
| 20260508154541 | 66 | 0 | 0.0 | 2.6 | 0.00 | 0.00 | 0.00 | 62 | 1018.3 |
| 20260508154029 | 66 | 0 | 0.0 | 4.3 | 0.00 | 0.00 | 0.00 | 66 | 1018.5 |
| 20260508153529 | 65 | 78 | 0.0 | 4.3 | 0.00 | 0.00 | 0.00 | 63 | 1018.4 |
| 20260508153048 | 65 | 0 | 0.0 | 3.5 | 0.00 | 0.00 | 0.00 | 62 | 1018.5 |
| 20260508152530 | 65 | 0 | 0.0 | 3.5 | 0.00 | 0.00 | 0.00 | 63 | 1018.5 |
| 20260508152031 | 66 | 0 | 0.0 | 3.5 | 0.00 | 0.00 | 0.00 | 61 | 1018.5 |
| 20260508151541 | 65 | 0 | 0.0 | 3.5 | 0.00 | 0.00 | 0.00 | 66 | 1018.5 |
| 20260508151031 | 65 | 0 | 0.9 | 3.5 | 0.00 | 0.00 | 0.00 | 63 | 1018.5 |
| 20260508150530 | 64 | 0 | 0.0 | 2.6 | 0.00 | 0.00 | 0.00 | 63 | 1018.6 |
| 20260508150041 | 64 | 0 | 0.0 | 3.5 | 0.00 | 0.00 | 0.00 | 68 | 1018.5 |
| 20260508145531 | 64 | 360 | 0.0 | 3.5 | 0.00 | 0.00 | 0.00 | 63 | 1018.5 |
| 20260508145030 | 64 | 0 | 0.0 | 0.0 | 0.00 | 0.00 | 0.00 | 60 | 1018.5 |
| 20260508144547 | 63 | 0 | 0.0 | 4.3 | 0.00 | 0.00 | 0.00 | 66 | 1018.4 |
| 20260508144030 | 63 | 0 | 0.9 | 4.3 | 0.00 | 0.00 | 0.00 | 66 | 1018.5 |
| 20260508143531 | 62 | 0 | 0.0 | 0.9 | 0.00 | 0.00 | 0.00 | 67 | 1018.5 |
| 20260508143043 | 62 | 0 | 0.0 | 0.9 | 0.00 | 0.00 | 0.00 | 69 | 1018.6 |
| 20260508142532 | 61 | 0 | 0.0 | 0.0 | 0.00 | 0.00 | 0.00 | 68 | 1018.7 |
| 20260508142029 | 61 | 0 | 0.0 | 0.0 | 0.00 | 0.00 | 0.00 | 67 | 1018.7 |
| 20260508141543 | 61 | 0 | 0.0 | 0.9 | 0.00 | 0.00 | 0.00 | 69 | 1018.7 |
| 20260508141029 | 60 | 0 | 0.0 | 0.9 | 0.00 | 0.00 | 0.00 | 68 | 1018.7 |
| 20260508140530 | 60 | 0 | 0.0 | 0.0 | 0.00 | 0.00 | 0.00 | 68 | 1018.7 |
| 20260508140043 | 60 | 0 | 0.0 | 1.7 | 0.00 | 0.00 | 0.00 | 68 | 1018.8 |
| 20260508135531 | 60 | 0 | 0.0 | 1.7 | 0.00 | 0.04 | 0.00 | 68 | 1018.9 |
| 20260508135030 | 59 | 0 | 0.0 | 4.3 | 0.00 | 0.04 | 0.00 | 70 | 1019.0 |
| 20260508134544 | 59 | 0 | 0.0 | 4.3 | 0.00 | 0.04 | 0.00 | 68 | 1018.9 |
| 20260508134030 | 59 | 0 | 0.9 | 4.3 | 0.00 | 0.04 | 0.00 | 68 | 1019.0 |
| 20260508133530 | 59 | 0 | 0.0 | 0.9 | 0.00 | 0.04 | 0.00 | 69 | 1019.0 |
| 20260508133048 | 59 | 0 | 0.0 | 2.6 | 0.00 | 0.04 | 0.00 | 70 | 1018.8 |
| 20260508132531 | 58 | 0 | 0.0 | 2.6 | 0.00 | 0.04 | 0.00 | 68 | 1018.8 |
| 20260508132028 | 58 | 52 | 0.0 | 0.0 | 0.00 | 0.04 | 0.00 | 70 | 1018.8 |
| 20260508131547 | 58 | 0 | 0.0 | 0.0 | 0.00 | 0.04 | 0.00 | 70 | 1018.7 |
| 20260508131031 | 58 | 0 | 0.0 | 0.0 | 0.00 | 0.04 | 0.00 | 72 | 1018.7 |
| 20260508130531 | 58 | 0 | 0.0 | 2.6 | 0.00 | 0.04 | 0.00 | 73 | 1018.7 |
| 20260508130045 | 57 | 0 | 0.0 | 4.3 | 0.00 | 0.04 | 0.00 | 74 | 1018.7 |
| 20260508125532 | 57 | 0 | 0.0 | 4.3 | 0.00 | 0.07 | 0.00 | 74 | 1018.6 |
| 20260508125050 | 57 | 200 | 0.0 | 1.7 | 0.00 | 0.07 | 0.00 | 75 | 1018.7 |
| 20260508124549 | 56 | 0 | 0.0 | 0.9 | 0.00 | 0.07 | 0.00 | 77 | 1018.6 |
| 20260508124033 | 56 | 0 | 0.0 | 3.5 | 0.00 | 0.07 | 0.00 | 77 | 1018.5 |
| 20260508123530 | 56 | 0 | 0.0 | 4.3 | 0.00 | 0.07 | 0.00 | 78 | 1018.5 |
| 20260508123048 | 56 | 0 | 0.0 | 4.3 | 0.00 | 0.07 | 0.00 | 77 | 1018.5 |
| 20260508122532 | 55 | 0 | 0.0 | 3.5 | 0.00 | 0.07 | 0.00 | 79 | 1018.4 |
| 20260508122033 | 55 | 0 | 0.0 | 5.2 | 0.00 | 0.07 | 0.00 | 78 | 1018.3 |
| 20260508121549 | 55 | 0 | 0.0 | 6.1 | 0.00 | 0.07 | 0.00 | 79 | 1018.3 |
| 20260508121033 | 54 | 264 | 0.9 | 6.1 | 0.00 | 0.07 | 0.00 | 80 | 1018.2 |
| 20260508120532 | 54 | 261 | 0.9 | 6.1 | 0.00 | 0.07 | 0.00 | 80 | 1018.2 |
| 20260508120048 | 54 | 0 | 0.0 | 2.6 | 0.00 | 0.07 | 0.00 | 81 | 1018.3 |
| 20260508115533 | 53 | 0 | 0.0 | 2.6 | 0.00 | 0.14 | 0.00 | 82 | 1018.1 |
| 20260508115032 | 53 | 0 | 0.0 | 2.6 | 0.00 | 0.14 | 0.00 | 81 | 1017.9 |
| 20260508114602 | 53 | 0 | 0.0 | 3.5 | 0.00 | 0.14 | 0.00 | 81 | 1018.0 |
| 20260508114032 | 53 | 0 | 0.0 | 3.5 | 0.00 | 0.14 | 0.00 | 82 | 1017.9 |
| 20260508113532 | 53 | 238 | 0.9 | 3.5 | 0.00 | 0.14 | 0.00 | 82 | 1017.8 |
| 20260508113045 | 53 | 0 | 0.9 | 3.5 | 0.00 | 0.14 | 0.00 | 82 | 1017.7 |
| 20260508112532 | 53 | 252 | 0.9 | 3.5 | 0.00 | 0.14 | 0.00 | 82 | 1017.5 |
| 20260508112031 | 53 | 257 | 0.9 | 3.5 | 0.00 | 0.14 | 0.00 | 82 | 1017.5 |
| 20260508111558 | 52 | 0 | 0.9 | 3.5 | 0.00 | 0.14 | 0.00 | 82 | 1017.3 |
| 20260508111033 | 52 | 0 | 0.9 | 3.5 | 0.00 | 0.14 | 0.00 | 82 | 1017.2 |
| 20260508110532 | 52 | 160 | 0.9 | 3.5 | 0.00 | 0.14 | 0.00 | 83 | 1017.1 |
| 20260508110048 | 52 | 252 | 0.9 | 3.5 | 0.00 | 0.14 | 0.00 | 83 | 1017.1 |
| 20260508105533 | 52 | 271 | 0.9 | 3.5 | 0.00 | 0.17 | 0.00 | 84 | 1017.1 |
| 20260508105033 | 52 | 313 | 0.9 | 3.5 | 0.00 | 0.17 | 0.00 | 84 | 1017.0 |
| 20260508104547 | 51 | 313 | 0.9 | 3.5 | 0.00 | 0.17 | 0.00 | 84 | 1017.0 |
| 20260508104033 | 51 | 313 | 0.0 | 3.5 | 0.00 | 0.17 | 0.00 | 85 | 1016.8 |
| 20260508103533 | 51 | 322 | 0.9 | 1.7 | 0.00 | 0.17 | 0.00 | 86 | 1016.6 |
| 20260508103046 | 51 | 225 | 0.9 | 1.7 | 0.00 | 0.17 | 0.00 | 86 | 1016.6 |
| 20260508102532 | 51 | 225 | 0.9 | 3.5 | 0.00 | 0.17 | 0.00 | 86 | 1016.4 |
| 20260508102032 | 51 | 225 | 0.9 | 3.5 | 0.00 | 0.17 | 0.00 | 86 | 1016.4 |
| 20260508101544 | 51 | 0 | 0.9 | 2.6 | 0.00 | 0.17 | 0.00 | 86 | 1016.5 |
| 20260508101031 | 51 | 225 | 0.9 | 2.6 | 0.00 | 0.17 | 0.00 | 86 | 1016.4 |
| 20260508100533 | 51 | 225 | 0.9 | 3.5 | 0.00 | 0.17 | 0.00 | 86 | 1016.2 |
| 20260508100049 | 51 | 224 | 0.9 | 3.5 | 0.00 | 0.17 | 0.00 | 87 | 1016.2 |
| 20260508095532 | 51 | 223 | 0.9 | 2.6 | 0.00 | 0.19 | 0.00 | 89 | 1016.1 |
| 20260508095033 | 51 | 223 | 0.9 | 2.6 | 0.00 | 0.19 | 0.00 | 89 | 1016.0 |
| 20260508094548 | 50 | 223 | 0.9 | 1.7 | 0.00 | 0.19 | 0.00 | 90 | 1015.9 |
| 20260508094032 | 50 | 221 | 0.9 | 1.7 | 0.00 | 0.19 | 0.00 | 91 | 1016.0 |
| 20260508093532 | 50 | 221 | 0.9 | 2.6 | 0.00 | 0.19 | 0.00 | 91 | 1016.0 |
| 20260508093046 | 51 | 221 | 0.9 | 2.6 | 0.00 | 0.19 | 0.00 | 90 | 1015.9 |
| 20260508092533 | 51 | 221 | 0.0 | 1.7 | 0.00 | 0.19 | 0.00 | 89 | 1016.1 |
| 20260508092030 | 51 | 0 | 0.0 | 1.7 | 0.00 | 0.19 | 0.00 | 89 | 1016.0 |
| 20260508091603 | 51 | 0 | 0.0 | 2.6 | 0.00 | 0.19 | 0.00 | 88 | 1016.0 |
| 20260508091033 | 52 | 221 | 0.9 | 2.6 | 0.00 | 0.19 | 0.00 | 87 | 1016.0 |
| 20260508090532 | 52 | 221 | 0.9 | 2.6 | 0.00 | 0.19 | 0.00 | 87 | 1015.8 |
| 20260508090052 | 53 | 221 | 0.0 | 2.6 | 0.00 | 0.19 | 0.00 | 85 | 1015.8 |
| 20260508085530 | 53 | 231 | 0.0 | 3.5 | 0.00 | 0.20 | 0.00 | 85 | 1015.8 |
| 20260508085032 | 53 | 0 | 0.9 | 3.5 | 0.00 | 0.20 | 0.00 | 85 | 1015.8 |
| 20260508084542 | 53 | 235 | 0.9 | 4.3 | 0.00 | 0.20 | 0.00 | 86 | 1015.9 |
| 20260508084032 | 52 | 242 | 1.7 | 4.3 | 0.00 | 0.20 | 0.00 | 87 | 1015.9 |
| 20260508083531 | 52 | 254 | 0.0 | 3.5 | 0.00 | 0.20 | 0.00 | 88 | 1015.8 |
| 20260508083049 | 52 | 0 | 0.9 | 3.5 | 0.00 | 0.20 | 0.00 | 89 | 1015.6 |
| 20260508082538 | 51 | 254 | 0.9 | 3.5 | 0.00 | 0.20 | 0.00 | 90 | 1015.7 |
| 20260508082033 | 51 | 269 | 1.7 | 3.5 | 0.00 | 0.20 | 0.00 | 90 | 1015.6 |
| 20260508081547 | 51 | 253 | 1.7 | 3.5 | 0.00 | 0.20 | 0.00 | 91 | 1015.6 |
| 20260508081034 | 51 | 310 | 0.9 | 1.7 | 0.00 | 0.20 | 0.00 | 90 | 1015.6 |
| 20260508080532 | 51 | 0 | 0.0 | 1.7 | 0.00 | 0.20 | 0.00 | 89 | 1015.6 |
| 20260508080041 | 51 | 0 | 0.0 | 1.7 | 0.00 | 0.20 | 0.00 | 89 | 1015.5 |
| 20260508075536 | 51 | 310 | 0.0 | 3.5 | 0.00 | 0.21 | 0.00 | 90 | 1015.5 |
| 20260508075032 | 51 | 310 | 0.9 | 3.5 | 0.00 | 0.21 | 0.00 | 90 | 1015.6 |
| 20260508074543 | 51 | 312 | 0.9 | 3.5 | 0.00 | 0.21 | 0.00 | 89 | 1015.6 |
| 20260508074032 | 51 | 317 | 0.0 | 2.6 | 0.00 | 0.21 | 0.00 | 90 | 1015.6 |
| 20260508073533 | 51 | 317 | 0.9 | 2.6 | 0.00 | 0.21 | 0.00 | 90 | 1015.5 |
| 20260508073051 | 51 | 0 | 0.0 | 1.7 | 0.00 | 0.21 | 0.00 | 91 | 1015.4 |
| 20260508072533 | 51 | 0 | 0.0 | 0.0 | 0.00 | 0.21 | 0.00 | 91 | 1015.3 |
| 20260508072030 | 51 | 0 | 0.0 | 0.0 | 0.00 | 0.21 | 0.00 | 91 | 1015.2 |
| 20260508071545 | 51 | 0 | 0.0 | 0.0 | 0.00 | 0.21 | 0.00 | 91 | 1015.3 |
| 20260508071032 | 51 | 0 | 0.0 | 0.9 | 0.00 | 0.21 | 0.00 | 91 | 1015.3 |
| 20260508070536 | 51 | 0 | 0.0 | 1.7 | 0.00 | 0.21 | 0.00 | 91 | 1015.3 |
| 20260508070044 | 51 | 0 | 0.0 | 1.7 | 0.00 | 0.21 | 0.00 | 91 | 1015.3 |
| 20260508065533 | 51 | 0 | 0.0 | 1.7 | 0.00 | 0.24 | 0.00 | 91 | 1015.1 |
| 20260508065032 | 51 | 321 | 0.0 | 1.7 | 0.00 | 0.24 | 0.00 | 90 | 1014.9 |
| 20260508064542 | 51 | 321 | 0.0 | 1.7 | 0.00 | 0.24 | 0.00 | 90 | 1015.0 |
| 20260508064033 | 51 | 0 | 0.0 | 1.7 | 0.00 | 0.24 | 0.00 | 89 | 1014.9 |
| 20260508063533 | 51 | 0 | 0.0 | 1.7 | 0.00 | 0.24 | 0.00 | 89 | 1015.0 |
| 20260508063044 | 52 | 0 | 0.0 | 1.7 | 0.00 | 0.24 | 0.00 | 88 | 1015.1 |
| 20260508062532 | 52 | 0 | 0.0 | 1.7 | 0.00 | 0.24 | 0.00 | 88 | 1015.1 |
| 20260508062032 | 52 | 0 | 0.0 | 1.7 | 0.00 | 0.24 | 0.00 | 87 | 1015.0 |
| 20260508061545 | 52 | 0 | 0.0 | 1.7 | 0.00 | 0.24 | 0.00 | 87 | 1015.0 |
| 20260508061033 | 52 | 0 | 0.0 | 0.9 | 0.00 | 0.24 | 0.00 | 87 | 1014.9 |
| 20260508060532 | 52 | 0 | 0.0 | 0.9 | 0.00 | 0.24 | 0.00 | 87 | 1014.9 |
| 20260508060049 | 53 | 0 | 0.0 | 1.7 | 0.00 | 0.24 | 0.00 | 86 | 1015.0 |
| 20260508055533 | 53 | 0 | 0.0 | 1.7 | 0.00 | 0.30 | 0.00 | 85 | 1015.0 |
| 20260508055034 | 53 | 0 | 0.0 | 1.7 | 0.00 | 0.30 | 0.00 | 85 | 1015.1 |
| 20260508054547 | 53 | 321 | 0.0 | 1.7 | 0.00 | 0.30 | 0.00 | 85 | 1015.0 |
| 20260508054032 | 53 | 0 | 0.0 | 1.7 | 0.00 | 0.30 | 0.00 | 85 | 1015.1 |
| 20260508053533 | 53 | 321 | 0.0 | 1.7 | 0.00 | 0.30 | 0.00 | 85 | 1014.9 |
| 20260508053055 | 53 | 0 | 0.0 | 0.9 | 0.00 | 0.30 | 0.00 | 83 | 1015.0 |
| 20260508052534 | 54 | 0 | 0.0 | 0.9 | 0.00 | 0.30 | 0.00 | 82 | 1015.0 |
| 20260508052034 | 54 | 0 | 0.0 | 0.0 | 0.00 | 0.30 | 0.00 | 82 | 1015.1 |
| 20260508051547 | 54 | 0 | 0.0 | 0.0 | 0.00 | 0.30 | 0.00 | 81 | 1015.0 |
| 20260508051035 | 55 | 0 | 0.0 | 0.0 | 0.00 | 0.30 | 0.00 | 80 | 1015.1 |
| 20260508050532 | 55 | 0 | 0.0 | 0.0 | 0.00 | 0.30 | 0.00 | 81 | 1014.9 |
| 20260508050054 | 55 | 0 | 0.0 | 0.9 | 0.00 | 0.30 | 0.00 | 80 | 1014.9 |
| 20260508045532 | 55 | 0 | 0.0 | 3.5 | 0.00 | 0.33 | 0.00 | 78 | 1014.7 |
| 20260508045032 | 55 | 321 | 0.9 | 3.5 | 0.00 | 0.33 | 0.00 | 78 | 1014.9 |
| 20260508044544 | 55 | 223 | 0.0 | 1.7 | 0.00 | 0.33 | 0.00 | 79 | 1014.9 |
| 20260508044032 | 56 | 223 | 0.0 | 1.7 | 0.00 | 0.33 | 0.00 | 78 | 1014.6 |
| 20260508043531 | 56 | 223 | 0.0 | 1.7 | 0.00 | 0.33 | 0.00 | 76 | 1014.6 |
| 20260508043052 | 56 | 0 | 0.0 | 0.9 | 0.00 | 0.33 | 0.00 | 76 | 1014.6 |
| 20260508042533 | 57 | 0 | 0.0 | 0.9 | 0.00 | 0.33 | 0.00 | 76 | 1014.6 |
| 20260508042034 | 57 | 0 | 0.0 | 3.5 | 0.00 | 0.33 | 0.00 | 75 | 1014.6 |
| 20260508041547 | 57 | 0 | 0.0 | 3.5 | 0.00 | 0.33 | 0.00 | 76 | 1014.5 |
| 20260508041032 | 57 | 219 | 0.9 | 3.5 | 0.00 | 0.33 | 0.00 | 73 | 1014.5 |
| 20260508040533 | 57 | 0 | 0.0 | 2.6 | 0.00 | 0.33 | 0.00 | 73 | 1014.5 |
| 20260508040045 | 57 | 0 | 0.0 | 3.5 | 0.00 | 0.33 | 0.00 | 74 | 1014.5 |
| 20260508035534 | 57 | 46 | 0.9 | 3.5 | 0.00 | 0.33 | 0.33 | 75 | 1014.6 |
| 20260508035035 | 57 | 0 | 0.9 | 3.5 | 0.00 | 0.33 | 0.33 | 73 | 1014.5 |
| 20260508034547 | 57 | 0 | 0.0 | 4.3 | 0.00 | 0.33 | 0.33 | 74 | 1014.6 |
| 20260508034032 | 57 | 0 | 0.0 | 4.3 | 0.00 | 0.33 | 0.33 | 73 | 1014.4 |
| 20260508033530 | 57 | 0 | 0.0 | 4.3 | 0.00 | 0.33 | 0.33 | 73 | 1014.4 |
| 20260508033041 | 57 | 30 | 0.0 | 2.6 | 0.00 | 0.33 | 0.33 | 73 | 1014.4 |
| 20260508032531 | 57 | 213 | 0.9 | 2.6 | 0.00 | 0.33 | 0.33 | 74 | 1014.5 |
| 20260508032029 | 57 | 213 | 0.0 | 2.6 | 0.00 | 0.33 | 0.33 | 74 | 1014.7 |
| 20260508031548 | 57 | 0 | 0.0 | 2.6 | 0.00 | 0.33 | 0.33 | 73 | 1014.5 |
| 20260508031031 | 57 | 0 | 0.0 | 0.0 | 0.00 | 0.33 | 0.33 | 75 | 1014.5 |
| 20260508030531 | 57 | 0 | 0.0 | 0.0 | 0.00 | 0.33 | 0.33 | 75 | 1014.5 |
| 20260508030047 | 57 | 0 | 0.0 | 0.0 | 0.00 | 0.33 | 0.33 | 74 | 1014.5 |
| 20260508025529 | 58 | 0 | 0.0 | 0.0 | 0.00 | 0.44 | 0.33 | 74 | 1014.4 |
| 20260508025032 | 58 | 0 | 0.0 | 0.0 | 0.00 | 0.44 | 0.33 | 71 | 1014.5 |
| 20260508024554 | 58 | 0 | 0.0 | 0.0 | 0.00 | 0.44 | 0.33 | 72 | 1014.5 |
| 20260508024031 | 58 | 0 | 0.0 | 5.2 | 0.00 | 0.44 | 0.33 | 71 | 1014.4 |
| 20260508023530 | 58 | 0 | 0.9 | 5.2 | 0.00 | 0.44 | 0.33 | 69 | 1014.5 |
| 20260508023042 | 58 | 0 | 0.9 | 5.2 | 0.00 | 0.44 | 0.33 | 70 | 1014.3 |
| 20260508022532 | 58 | 219 | 0.0 | 5.2 | 0.00 | 0.44 | 0.33 | 71 | 1014.1 |